Wind_Speed
6 4 2 2 2 2 4 4 2 2 1 3 2 4 8 6 6 4 1 6 1 10 15 17 17 16 13 12 11 9 8 8 9 10 10 11 10 8 6 7 9 10 11 12 11 10 9 9 8
3 1 0 0 2 6 6 2 4 4 3 1 1 1 3 8 4 4 3 6 1 12 16 15 18 14 12 11 11 9 8 7 7 9 9 10 8 3 5 7 8 10 10 10 9 8 8 8 7
1 2 2 1 1 5 5 3 3 3 1 0 2 2 2 4 5 3 4 6 4 11 14 14 18 15 12 12 11 10 8 7 7 7 8 7 5 4 6 6 7 9 9 9 7 6 7 7 5
1 2 2 0 8 3 3 3 1 3 2 1 1 5 4 4 4 7 4 5 4 7 13 13 16 15 15 13 11 8 7 7 5 6 6 6 6 5 4 4 6 7 10 9 6 5 7 7 5
3 1 2 5 4 3 1 0 1 2 2 3 1 4 4 5 5 7 6 4 4 5 11 13 16 15 14 13 12 10 10 8 6 5 5 7 7 6 2 3 5 7 9 10 8 7 8 8 6
1 2 3 6 5 3 2 1 1 2 2 3 2 4 4 8 8 8 7 6 5 5 7 9 16 16 13 12 12 10 10 8 6 5 5 6 7 5 1 3 5 6 7 9 10 9 8 8 6
1 1 3 6 8 5 3 1 3 3 3 4 1 4 6 11 12 6 7 8 8 6 4 4 8 15 16 13 11 10 10 8 6 6 5 6 6 3 1 2 3 5 7 9 10 11 10 8 5
2 1 5 4 8 5 3 2 1 1 3 2 3 3 4 8 10 3 6 8 8 6 4 2 3 10 15 12 14 12 10 8 7 7 6 5 6 5 3 1 2 3 6 8 10 11 13 10 6
1 3 5 7 7 6 4 5 3 2 2 3 4 4 5 8 5 3 3 7 6 5 2 2 6 9 9 14 11 14 12 11 9 9 8 6 6 6 2 1 2 4 6 10 11 12 13 12 8
1 2 4 3 4 6 4 2 2 4 2 5 4 7 6 7 8 8 8 8 9 9 6 4 5 8 10 10 12 14 12 11 10 10 8 5 4 5 4 4 5 5 3 6 9 12 14 12 9
1 1 4 3 3 2 3 1 2 2 3 2 1 5 6 8 10 10 9 9 10 10 8 8 5 7 10 10 10 11 10 9 9 7 6 7 7 5 6 6 6 6 5 5 5 10 12 11 9
2 2 2 3 4 3 3 2 2 4 2 5 7 6 5 7 9 9 9 9 10 10 10 10 7 5 8 12 12 11 10 9 7 5 3 6 7 8 10 10 8 7 6 7 7 6 7 9 9
3 3 3 3 5 4 1 5 2 5 5 7 8 7 6 7 7 7 7 7 9 10 11 11 9 6 5 11 11 10 8 6 4 2 5 8 5 6 7 10 8 8 8 8 7 7 6 6 6
1 2 3 3 3 5 6 2 4 5 8 7 5 6 7 9 9 7 9 9 11 11 12 11 10 8 2 10 11 11 12 9 6 5 5 5 1 3 4 6 9 11 10 9 9 8 7 7 7
1 4 5 6 3 5 7 4 6 12 9 6 5 5 5 7 8 9 10 10 11 11 11 11 14 12 13 15 17 19 16 13 11 10 7 5 3 2 0 1 4 7 8 8 8 8 7 7 8
2 2 4 3 4 3 7 4 7 11 9 5 4 4 3 6 7 8 9 8 9 9 10 12 16 17 20 22 24 22 19 17 17 14 13 11 11 10 7 5 3 3 4 4 5 6 6 7 8
2 6 6 3 4 3 8 3 8 5 7 6 5 4 3 5 7 8 8 8 9 9 11 14 17 20 24 27 27 27 25 22 20 18 18 17 15 14 14 14 12 10 9 7 6 3 3 4 5
6 6 5 6 2 5 6 8 11 3 6 6 5 5 5 5 7 7 8 8 9 10 13 17 20 22 25 28 29 26 24 21 18 18 17 16 16 15 15 15 14 12 12 11 9 7 7 6 8
1 4 8 3 1 3 11 13 12 6 5 7 6 6 6 6 5 7 8 9 10 11 13 15 17 15 14 15 15 16 18 17 18 19 19 18 17 16 14 13 12 12 14 13 12 8 8 9 13
6 9 13 5 3 5 9 14 15 10 7 7 9 9 9 8 7 8 9 10 11 12 13 14 15 14 14 13 15 15 17 18 18 19 21 21 19 19 18 17 17 16 14 16 17 16 11 10 14
11 13 12 9 2 4 6 15 19 6 6 7 8 10 11 12 11 9 10 10 10 11 12 18 19 20 20 20 22 23 20 18 17 18 22 24 23 23 23 22 21 21 19 19 19 18 18 13 12
15 13 9 7 4 10 3 8 4 8 10 11 12 13 13 12 10 11 12 11 10 10 11 14 18 20 20 20 19 17 17 19 16 16 18 21 22 22 22 22 22 22 21 21 19 20 17 16 16
6 5 10 8 10 6 8 7 4 3 11 15 15 14 13 11 10 10 11 10 9 9 11 14 18 20 20 20 20 21 22 18 16 15 17 19 20 20 20 20 20 20 19 19 19 19 18 15 13
13 7 5 2 3 9 16 13 6 7 8 12 16 16 16 14 12 11 9 8 8 8 11 14 18 20 19 22 21 21 21 18 17 13 13 13 14 15 18 18 18 17 17 17 17 16 16 14 11
6 10 4 5 6 8 2 11 12 8 8 9 22 21 19 16 14 13 14 12 10 9 11 13 16 18 19 22 21 20 18 17 16 13 11 12 11 13 15 14 14 14 14 14 14 14 12 12 11
15 18 6 7 6 3 2 8 5 1 4 5 15 19 19 18 15 14 17 15 14 12 12 14 16 18 18 20 21 19 18 15 14 13 12 12 11 11 11 10 10 10 11 11 11 11 11 12 11
8 11 3 4 1 3 6 4 6 4 5 5 12 17 19 19 17 16 20 19 17 16 15 16 16 16 16 18 18 18 17 15 15 13 11 11 10 9 8 7 6 9 10 12 12 12 12 12 12
6 11 5 5 5 6 4 5 8 9 13 11 14 18 19 18 18 16 20 19 17 17 16 15 15 16 17 17 16 16 16 14 13 11 10 10 8 6 5 5 7 8 9 11 12 11 10 11 11
7 7 6 3 4 4 3 5 5 11 15 17 17 19 21 21 19 17 21 21 20 18 17 16 15 16 16 16 16 16 15 14 12 10 9 8 6 4 3 5 6 8 10 11 11 10 10 11 12
12 11 15 7 6 4 2 6 5 4 7 12 15 17 19 19 18 20 23 23 22 21 19 19 18 17 17 17 18 17 16 15 12 10 8 6 3 2 3 5 7 9 10 12 11 11 11 12 13
Wind_Direction
331 334 346 253 204 115 94 89 336 114 123 44 6 357 58 34 21 53 14 177 11 167 170 172 173 173 177 166 158 148 136 127 127 126 126 124 117 94 70 58 55 55 60 61 59 57 56 59 64
327 348 7 197 168 137 107 97 108 61 48 29 141 156 77 66 48 87 107 160 352 171 171 173 179 174 175 175 169 161 153 142 131 134 137 133 126 127 83 62 58 51 48 48 49 47 45 46 48
326 52 259 78 105 115 120 145 98 88 47 252 134 17 28 41 56 51 10 174 115 163 176 179 180 176 184 187 177 172 168 162 151 144 146 149 146 119 87 58 51 46 40 36 37 32 29 29 26
270 178 127 141 111 90 89 120 132 154 135 86 55 98 109 27 15 8 46 125 124 167 181 193 181 179 196 193 195 192 189 179 168 159 156 151 141 134 104 36 43 40 32 23 26 22 21 18 10
32 240 118 118 106 114 171 55 194 165 100 74 324 97 81 52 30 49 72 81 93 150 176 188 194 195 207 204 205 203 197 194 189 176 162 159 155 150 106 43 50 42 27 23 26 21 12 9 11
159 280 170 163 142 150 188 148 207 166 126 113 96 125 83 38 46 38 59 67 82 136 170 193 204 205 211 216 215 212 209 207 203 194 186 193 170 163 109 60 56 37 26 18 17 16 12 13 20
84 238 129 152 151 172 166 139 195 130 149 86 38 153 121 47 19 47 71 75 80 90 134 179 204 214 214 216 221 224 224 222 225 220 212 207 190 201 174 81 57 29 17 10 12 9 5 11 21
81 101 144 176 182 172 152 176 69 357 94 21 338 155 160 352 350 55 74 71 71 93 104 145 214 221 218 223 221 224 231 234 252 243 233 223 212 217 198 78 51 23 17 10 11 9 8 6 5
264 186 177 175 178 153 149 182 114 332 239 63 36 40 356 340 355 57 53 39 41 34 39 205 215 210 224 224 228 225 229 233 241 239 234 241 227 216 227 313 335 339 350 356 1 8 8 10 3
275 239 171 152 162 160 151 193 135 207 175 140 120 86 40 33 44 52 36 17 12 3 347 306 250 229 215 216 219 224 233 231 235 227 223 207 226 230 233 258 297 305 332 346 342 347 351 358 0
113 262 149 155 149 150 153 222 159 217 203 73 123 105 42 35 40 38 30 15 353 345 345 335 296 251 225 209 203 209 226 228 245 260 231 252 252 250 249 259 254 269 290 304 319 334 333 335 347
195 170 171 128 164 170 198 136 198 224 77 68 80 74 55 40 34 22 9 359 352 347 342 340 329 278 229 204 196 195 196 210 223 239 256 250 252 263 256 249 239 260 272 284 292 304 320 340 346
214 177 193 163 174 232 232 224 262 167 120 104 93 74 55 45 31 19 7 359 353 351 348 345 344 327 239 186 188 187 183 175 147 183 230 221 228 247 253 256 240 253 263 268 276 280 303 320 332
122 228 257 249 195 211 214 214 192 146 143 114 100 64 45 33 16 11 11 4 2 357 358 1 17 19 98 148 164 154 144 141 128 105 71 67 55 298 282 275 259 239 242 260 265 271 281 291 302
59 286 282 223 196 215 189 197 218 145 158 125 89 68 45 27 19 17 4 1 360 6 13 48 63 76 98 134 136 124 120 118 109 98 91 64 42 37 132 27 279 278 275 267 266 277 284 294 302
233 250 256 134 165 159 205 186 144 159 166 154 138 117 87 56 38 24 12 8 10 23 57 85 98 112 122 126 123 119 118 113 106 101 94 85 80 68 59 47 31 343 278 257 254 271 285 296 297
217 256 220 274 189 162 217 144 159 179 213 177 154 129 101 80 53 35 23 20 24 36 65 87 96 105 114 116 113 112 108 100 89 89 90 91 87 83 82 80 74 68 68 59 38 3 355 342 328
208 221 223 234 172 213 220 240 173 172 202 185 162 140 118 88 47 36 45 50 55 62 75 89 98 101 106 107 104 96 89 81 79 75 74 77 81 79 76 73 74 76 72 73 66 61 55 38 355
179 223 248 185 162 253 245 257 206 201 192 186 171 157 132 98 72 61 62 71 83 86 89 94 100 101 98 94 88 82 77 71 68 68 69 62 58 56 62 67 67 57 51 41 28 32 32 22 2
220 243 248 266 198 227 253 254 257 201 216 205 180 167 149 136 116 86 71 73 82 90 95 96 94 92 99 105 105 94 89 77 76 73 72 70 68 67 64 60 54 49 48 42 35 28 14 18 15
225 227 237 256 143 218 277 263 246 203 195 181 179 164 160 155 140 122 100 88 88 87 97 108 109 107 104 103 106 105 99 89 76 68 70 71 72 69 68 66 62 59 57 46 40 34 30 19 22
235 219 235 236 238 262 218 281 242 208 205 197 183 181 169 163 149 137 127 109 93 87 96 106 114 118 120 124 125 116 108 101 90 86 83 79 76 75 71 67 65 64 60 56 49 45 43 38 26
245 148 210 224 239 269 209 263 236 178 226 206 193 186 176 168 160 147 133 117 110 110 107 106 109 108 113 114 111 110 107 107 108 101 92 85 82 79 75 72 69 64 61 60 56 49 45 41 36
134 100 79 105 206 250 231 217 215 204 217 178 186 187 179 172 167 156 146 138 128 118 116 115 115 112 116 117 115 116 119 121 119 115 100 87 79 71 70 69 65 63 61 53 48 46 40 37 30
184 164 200 225 210 247 142 209 243 212 173 185 185 184 180 176 174 168 167 165 155 146 134 124 123 121 124 123 121 121 119 120 118 116 112 104 88 78 70 66 61 55 49 42 39 33 27 22 14
195 189 197 216 205 206 141 226 242 334 119 133 185 177 173 177 178 179 177 175 172 168 157 144 140 134 136 131 128 128 125 121 113 111 107 100 96 88 80 70 59 47 39 34 26 21 13 4 359
180 212 185 104 172 261 204 240 238 167 184 166 167 174 181 182 184 185 182 181 178 179 174 162 155 149 145 139 137 132 129 125 124 122 118 111 105 99 86 69 48 32 21 14 10 5 1 358 350
201 146 176 219 216 232 206 246 225 202 203 179 181 190 187 186 188 187 186 184 184 185 181 172 167 163 154 150 144 140 139 135 133 131 128 123 118 109 83 45 23 13 4 2 359 355 350 348 344
169 188 213 222 219 227 256 233 217 197 189 188 194 194 189 188 189 188 189 188 189 185 184 180 179 171 165 162 157 154 151 148 151 150 141 133 122 98 51 17 3 357 355 352 351 347 343 342 334
232 217 195 207 190 238 296 250 161 163 175 193 190 190 193 193 191 191 190 190 190 190 186 186 188 183 179 174 172 171 167 169 167 164 157 145 138 77 8 353 349 347 346 344 344 342 336 334 331
Height
818 816 815 814 822 820 839 841 832 833 829 827 827 825 826 825 830 843 834 834 834 835 838 840 843 844 846 848 849 850 851 853 854 855 856 857 857 856 857 857 857 856 856 854 854 855 855 854 854
818 817 816 814 825 833 839 834 835 831 829 828 828 826 825 832 827 831 833 834 834 836 838 841 843 845 847 848 850 851 852 853 854 855 857 857 857 857 858 858 858 857 856 856 855 855 855 855 855
818 817 815 820 829 835 838 834 831 830 828 827 827 827 827 832 831 833 835 835 835 837 839 842 843 845 847 849 850 852 853 854 855 856 856 857 858 859 859 859 859 858 858 857 856 856 856 855 856
819 818 820 823 836 837 833 832 831 830 829 828 827 829 831 837 836 837 836 837 837 838 841 843 844 847 848 849 851 852 853 854 855 856 857 857 858 859 859 859 860 859 859 858 857 857 856 856 856
820 816 826 834 839 835 834 832 831 831 830 828 828 831 832 838 839 839 838 838 839 840 841 842 844 847 849 850 850 852 853 855 856 857 858 859 859 860 860 860 860 860 860 859 858 858 857 857 856
819 820 830 837 838 835 833 832 831 830 831 830 829 829 835 841 840 840 839 839 839 840 841 843 844 846 848 850 851 852 854 855 856 857 858 859 859 860 861 861 862 862 861 860 859 858 858 857 857
823 824 835 835 839 838 832 832 831 830 831 832 830 832 834 839 841 841 840 840 840 840 841 842 844 845 847 849 850 852 854 855 856 857 858 859 860 861 861 861 862 862 862 862 861 860 858 858 858
826 827 840 837 839 837 832 831 832 831 833 834 833 833 835 841 841 841 840 840 839 839 840 842 843 843 845 848 848 850 852 854 855 857 858 858 860 861 861 862 863 863 863 862 862 861 861 860 860
830 831 838 838 839 833 832 832 833 834 832 834 838 840 847 845 842 842 841 840 840 840 840 840 840 842 843 845 848 849 851 853 854 855 856 857 859 859 860 862 862 863 863 863 863 862 862 861 861
828 830 832 829 828 830 832 833 833 834 833 836 840 847 848 846 844 843 842 842 841 841 839 839 839 839 841 843 846 848 850 852 853 853 854 856 858 859 859 860 861 862 862 862 862 863 863 862 862
834 831 833 833 832 832 834 835 834 833 837 835 837 845 849 848 847 846 846 846 844 842 841 838 837 837 839 841 843 846 849 851 852 853 853 855 856 857 858 859 860 861 861 861 862 862 863 862 862
833 835 834 835 835 837 836 834 835 837 838 845 847 850 850 850 849 849 848 846 844 842 840 838 836 835 835 838 841 843 846 847 849 851 852 854 856 857 858 858 859 859 860 860 861 861 861 861 861
833 833 835 834 837 836 838 835 834 839 847 849 851 851 851 851 851 850 849 847 845 843 840 837 835 834 833 836 841 843 845 847 848 849 850 851 852 854 855 856 857 859 859 859 859 859 860 860 860
834 835 833 833 835 835 836 835 837 845 849 851 852 852 853 853 853 851 850 848 846 843 840 838 835 833 833 838 841 843 844 847 849 850 852 853 853 854 854 855 855 856 857 858 858 858 858 858 859
837 836 830 829 833 832 835 840 837 839 846 849 853 854 856 856 855 854 853 851 847 845 842 838 836 835 837 838 840 842 846 848 850 851 852 853 854 854 854 853 854 855 855 856 857 857 857 858 858
837 838 835 828 832 834 836 827 836 841 843 847 852 854 857 858 857 855 854 851 849 846 842 839 836 835 836 838 840 843 846 848 851 852 853 854 854 854 855 855 855 855 855 854 854 855 855 856 855
840 830 838 830 830 832 835 830 837 842 841 845 849 853 855 855 855 855 854 853 851 849 846 844 843 841 841 841 843 846 849 851 853 854 854 854 854 855 855 856 856 856 856 855 855 854 854 854 854
831 838 839 832 829 834 831 825 835 842 841 843 849 852 854 855 857 857 855 853 852 851 849 848 847 847 847 848 849 850 852 855 857 857 858 858 857 857 858 859 859 858 857 856 857 857 854 854 853
829 832 828 830 833 835 826 823 825 838 842 843 846 849 852 856 859 858 856 854 853 852 851 850 851 851 852 854 857 858 859 861 861 861 861 862 862 862 861 859 858 859 860 861 862 857 857 855 854
835 834 829 831 836 837 827 827 818 837 835 838 843 847 851 856 858 859 859 858 856 854 852 851 853 854 854 855 856 860 863 866 867 866 865 865 865 864 864 864 864 865 863 862 861 861 861 860 858
832 832 826 830 839 840 838 824 816 833 841 844 845 846 849 850 853 857 859 860 859 857 855 851 851 853 856 858 859 860 863 868 872 873 871 869 869 869 867 867 867 866 864 866 866 866 866 865 864
827 827 831 836 839 833 838 815 811 818 831 841 844 845 847 851 854 855 856 859 860 860 859 856 854 853 853 853 855 862 867 868 874 875 876 874 873 871 871 871 870 869 870 869 868 868 868 869 868
820 830 832 835 834 840 834 832 796 827 823 831 839 843 847 852 856 857 859 860 860 861 861 860 856 858 858 860 862 863 867 871 873 877 878 877 876 875 874 873 872 873 874 872 870 869 870 870 872
834 837 842 843 839 835 819 825 791 805 802 811 833 840 844 850 855 859 862 862 862 862 862 861 860 860 862 860 862 866 868 871 873 878 879 879 880 880 878 876 877 877 875 876 873 871 872 872 872
826 827 836 842 841 823 833 827 782 788 803 805 816 828 838 847 852 855 858 861 863 865 865 864 863 862 863 862 865 867 871 873 874 877 878 877 879 879 880 880 880 880 878 877 875 874 874 872 872
823 812 818 829 826 808 844 813 788 801 810 813 812 822 833 841 848 853 856 859 862 864 864 863 863 864 865 864 864 867 871 875 876 879 880 881 881 882 883 883 882 882 880 878 877 874 874 873 870
819 821 814 836 870 824 795 798 791 811 814 818 819 826 831 836 842 847 850 853 858 861 862 862 863 865 866 866 866 867 870 873 875 879 881 881 881 882 882 881 883 881 879 878 877 874 872 870 868
804 802 822 819 820 810 795 797 766 796 797 813 820 821 826 832 839 844 847 851 856 859 861 862 864 864 865 868 869 871 873 875 878 880 879 879 880 880 880 880 880 877 877 875 875 873 871 869 867
805 804 804 796 799 794 787 772 766 768 780 796 804 810 815 824 831 836 842 846 850 853 857 861 865 865 865 868 869 872 873 874 878 880 880 879 879 880 879 879 877 876 875 874 872 869 868 866 865
783 780 785 780 804 802 795 762 778 778 781 786 793 803 811 820 826 831 836 842 845 849 853 857 862 863 864 866 868 870 871 875 876 878 878 879 878 878 877 876 875 874 872 871 869 867 865 863 861